GW5207 Weather Reports


time (UTC)temp
C
wind
direction
speed
KPH
gust
KPH
rain 1hr
cm
rain 24hr
cm
rain mn
cm
humidity
%
barometer
mb
20260504204541 21 306 3.2 11.3 0.00 0.00 0.00 33 1006.2
20260504203029 21 106 3.2 8.0 0.00 0.00 0.00 33 1006.1
20260504201525 21 309 3.2 11.3 0.00 0.00 0.00 34 1006.2
20260504200025 21 286 1.6 12.9 0.00 0.00 0.00 34 1006.2
20260504194526 21 231 1.6 14.5 0.00 0.00 0.00 33 1006.5
20260504193027 22 288 1.6 11.3 0.00 0.00 0.00 35 1006.3
20260504191530 21 154 1.6 16.1 0.00 0.00 0.00 32 1006.5
20260504190028 22 235 3.2 12.9 0.00 0.00 0.00 31 1006.5
20260504184526 21 277 1.6 12.9 0.00 0.00 0.00 35 1006.7
20260504183027 21 107 3.2 11.3 0.00 0.00 0.00 32 1006.9
20260504181531 21 284 3.2 14.5 0.00 0.00 0.00 31 1006.6
20260504180028 21 269 4.8 14.5 0.00 0.00 0.00 31 1006.8
20260504174521 21 251 1.6 11.3 0.00 0.00 0.00 32 1006.8
20260504173018 21 306 3.2 16.1 0.00 0.00 0.00 32 1006.8
20260504171518 20 297 3.2 22.5 0.00 0.00 0.00 32 1006.9
20260504081528 4 271 0.0 0.0 0.00 0.00 0.00 79 1009.8
20260504044535 3 271 0.0 0.0 0.00 0.00 0.00 70 1009.9
20260504043026 3 271 0.0 0.0 0.00 0.00 0.00 71 1010.0
20260504041525 3 271 0.0 0.0 0.00 0.00 0.00 70 1009.9
20260504040032 3 271 0.0 0.0 0.00 0.00 0.00 72 1009.8
20260504034530 3 271 0.0 0.0 0.00 0.00 0.00 72 1009.8
20260504033026 3 271 0.0 0.0 0.00 0.00 0.00 73 1009.7
20260504031529 3 271 0.0 0.0 0.00 0.00 0.00 73 1009.7
20260504030025 3 271 0.0 0.0 0.00 0.00 0.00 74 1009.7
20260504024526 3 271 0.0 0.0 0.00 0.00 0.00 74 1009.8
20260504023025 3 271 0.0 0.0 0.00 0.00 0.00 74 1009.7
20260504021529 3 271 0.0 0.0 0.00 0.00 0.00 74 1009.8
20260504020020 3 271 0.0 0.0 0.00 0.00 0.00 73 1009.6
20260504014528 3 271 0.0 0.0 0.00 0.00 0.00 71 1009.5
20260504013035 4 271 0.0 0.0 0.00 0.00 0.00 71 1009.4
20260504011527 5 271 0.0 0.0 0.00 0.00 0.00 68 1009.2
20260504010029 5 271 0.0 0.0 0.00 0.00 0.00 67 1009.0
20260504004528 5 271 0.0 0.0 0.00 0.00 0.00 65 1008.9
20260504003027 6 271 0.0 0.0 0.00 0.00 0.00 64 1008.6
20260504001520 6 271 0.0 0.0 0.00 0.00 0.00 62 1008.5
20260504000020 7 271 0.0 0.0 0.00 0.00 0.00 59 1008.3
20260503234528 7 271 0.0 0.0 0.00 0.03 0.00 55 1008.3
20260503233030 8 271 0.0 1.6 0.00 0.03 0.00 56 1008.0
20260503231524 8 231 0.0 4.8 0.00 0.03 0.00 52 1007.9
20260503230019 8 149 0.0 6.4 0.00 0.03 0.00 51 1007.8
20260503224518 9 62 0.0 9.7 0.00 0.05 0.00 49 1007.6
20260503223031 9 108 1.6 11.3 0.00 0.08 0.00 48 1007.6
20260503221525 10 165 1.6 8.0 0.00 0.18 0.00 46 1007.5
20260503220020 10 263 1.6 12.9 0.00 0.20 0.00 47 1007.3
20260503214518 10 317 0.0 11.3 0.00 0.23 0.00 45 1007.2
20260503213029 10 132 0.0 8.0 0.00 0.28 0.00 46 1007.0
20260503211533 10 111 4.8 14.5 0.00 0.28 0.00 45 1007.0
20260503210025 10 130 0.0 4.8 0.00 0.28 0.00 47 1006.7